AirNav   Air Wisconsin pilot careers
 
 373 users online  

41A Reeves Airport
Tallassee, Alabama, USA

GOING TO TALLASSEE?


FAA INFORMATION EFFECTIVE 19 JULY 2018

Location

FAA Identifier: 41A
Lat/Long: 32-30-53.8000N / 085-52-34.3000W
32-30.896667N / 085-52.571667W
32.5149444 / -85.8761944
(estimated)
Elevation: 326 ft. / 99.4 m (surveyed)
Variation: 02W (1995)
From city: 2 miles SE of TALLASSEE, AL
Time zone: UTC -5 (UTC -6 during Standard Time)
Zip code: 36078

Airport Operations

Airport use: Open to the public
Activation date: 04/1996
Control tower: no
ARTCC: ATLANTA CENTER
FSS: ANNISTON FLIGHT SERVICE STATION
NOTAMs facility: ANB (NOTAM-D service available)
Attendance: UNATNDD
Wind indicator: lighted
Segmented circle: no
Beacon: white-green (lighted land airport)
Operates sunset to sunrise.

Airport Communications

CTAF: 122.9

Nearby radio navigation aids

VOR radial/distance  VOR name  Freq  Var
TGEr278/10.6TUSKEGEE VOR/DME117.3002E
MGMr049/28.5MONTGOMERY VORTAC112.1003E

Airport Services

Airframe service: NONE

Runway Information

Runway 13/31

Dimensions: 3207 x 75 ft. / 977 x 23 m
Surface: asphalt, in poor condition
CRACKING WITH VEGETATION VISIBLE ON RWY. SECTION OF ASPHALT MISSING RIGHT SIDE OF RWY 13.
Runway edge lights: medium intensity
Runway edge markings: RUNWAY MARKINGS FADED
RUNWAY 13  RUNWAY 31
Latitude: 32-31.074193N32-30.717660N
Longitude: 085-52.801500W085-52.340203W
Elevation: 320.0 ft.326.0 ft.
Traffic pattern: leftleft
Runway heading: 134 magnetic, 132 true314 magnetic, 312 true
Markings: NSTD, in poor conditionNSTD, in poor condition
Obstructions: 16 ft. trees, 387 ft. from runway, 142 ft. right of centerline, 11:1 slope to clear53 ft. tree, 1470 ft. from runway, 99 ft. left of centerline, 23:1 slope to clear

Airport Ownership and Management from official FAA records

Ownership: Publicly-owned
Owner: CITY OF TALLASSEE
3 FREEMAN AVENUE
TALLASSEE, AL 36078
Phone 334-283-6571
Manager: JOHNNY HAMMOCK, MAYOR
CITY OF TALLASSEE, 3 FREEMAN AVE
TALLASSEE, AL 36078
Phone 334-283-6571

Airport Operational Statistics

Aircraft based on the field: 4
Single engine airplanes: 3
Multi engine airplanes: 1
    
Aircraft operations: avg 88/week *
76% transient general aviation
24% local general aviation
* for 12-month period ending 23 June 2017

Instrument Procedures

There are no published instrument procedures at 41A.

Some nearby airports with instrument procedures:

06A - Moton Field Municipal Airport (10 nm E)
08A - Wetumpka Municipal Airport (23 nm W)
KAUO - Auburn University Regional Airport (23 nm E)
KALX - Thomas C Russell Field Airport (24 nm N)
KMXF - Maxwell Air Force Base (26 nm W)
 
Loc | Ops | Rwys | IFR | FBO | Links
Com | Nav | Svcs | Stats | Notes


 
Area around 41A (Reeves Airport)
 
Road maps at: MapQuest Bing Google
 
Aerial photo
WARNING: Photo may not be current or correct
Aerial photo of 41A (Reeves Airport)
Photo by Don Neuberg, Outwardbound Photography
Photo taken 13-Jan-2012
looking northwest.

Do you have a better or more recent aerial photo of Reeves Airport that you would like to share? If so, please send us your photo.

 
Sectional chart

 
Airport distance calculator
Flying to Reeves Airport? Find the distance to fly.

From to 41A

Sunrise and sunset
Times for 15-Aug-2018
 Local
(UTC-5)
 Zulu
(UTC)
Morning civil twilight05:4210:42
Sunrise06:0811:08
Sunset19:2800:28
Evening civil twilight19:5400:54

Current date and time
Zulu (UTC)  15-Aug-2018 07:39:21
Local (UTC-5)  15-Aug-2018 02:39:21
 
METAR
KAUO 
24nm E 
150656Z AUTO 00000KT 9SM CLR 22/22 A3007 RMK AO2 SLP194 T02170217
KALX 
25nm N 
150715Z AUTO 00000KT 7SM CLR 21/21 A3006 RMK AO2 T02100210
KMXF 
26nm W 
150656Z AUTO 00000KT 9SM SCT003 23/22 A3003 RMK AO2 SLP170 T02270223 $
KMGM 
30nm SW 
150715Z AUTO 00000KT 1 3/4SM BR CLR 22/22 A3004 RMK AO2 T02220217
K1A9 
33nm W 
150715Z AUTO 00000KT M1/4SM FG OVC002 21/21 A3004 RMK AO2 T02140214
KTOI 
41nm S 
150717Z AUTO 00000KT 1/2SM FG VV002 21/21 A3004 RMK AO2 T02110211
KSCD 
45nm NW 
150715Z AUTO 00000KT 7SM CLR 22/22 A3006 RMK AO2 T02200220
KLSF 
46nm E 
150656Z AUTO 00000KT 5SM BR CLR 22/22 A3002 RMK AO2 SLP169 T02240224
KCSG 
47nm E 
150651Z AUTO 22003KT 10SM CLR 24/23 A3003 RMK AO2 SLP164 T02440233
TAF
KMXF 
26nm W 
141900Z 1419/1601 25006KT 9999 SCT040 QNH2999INS TEMPO 1420/1502 VRB12G20KT 4800 -TSRA BKN040CB BECMG 1501/1502 19006KT 9999 VCTS BKN040CB QNH2996INS BECMG 1503/1504 19006KT 9999 NSW SCT040 QNH2998INS BECMG 1505/1506 VRB06KT 6000 BR FEW010 QNH3002INS BECMG 1514/1515 18006KT 9999 NSW SCT040 BKN090 QNH3000INS TEMPO 1519/1523 VRB10G15KT 3200 -TSRA BKN040CB TX33/1419Z TN20/1511Z LAST NO AMDS AFT 1503 NEXT 1511
KMGM 
30nm SW 
150520Z 1506/1606 00000KT 2SM BR SCT002 TEMPO 1506/1509 1/2SM FG OVC002 FM150900 00000KT 1/2SM FG OVC001 FM151400 00000KT P6SM FEW250 FM151600 14005KT P6SM SCT050 PROB30 1518/1523 4SM TSRA BKN050CB
NOTAMs
Click for the latest NOTAMs
NOTAMs are issued by the DoD/FAA and will open in a separate window not controlled by AirNav.

 

 
 

Would you like to see your business listed on this page?

 If your business provides an interesting product or service to pilots, flight crews, aircraft, or users of the Reeves Airport, you should consider listing it here.  To start the listing process, click on the button below
 
Add a business
 

Other Pages about Reeves Airport

Update a link
 
Copyright © AirNav, LLC. All rights reserved. Privacy Policy  Contact